EN

Hourly Weather Osinovka

Today, 18 May, Tuesday

Time Temperature Precipitation Wind Pressure Humidity
00:00 +20°C° 0 mm 4 mps 758 mmHg 41%
01:00 +20°C° 0 mm 4 mps 757 mmHg 42%
02:00 +19°C° 0 mm 4 mps 757 mmHg 44%
03:00 +19°C° 0 mm 4 mps 757 mmHg 45%
04:00 +19°C° 0 mm 3 mps 757 mmHg 47%
05:00 +19°C° 0 mm 3 mps 757 mmHg 49%
06:00 +20°C° 0 mm 3 mps 757 mmHg 51%
07:00 +22°C° 0 mm 4 mps 757 mmHg 45%
08:00 +26°C° 0 mm 4 mps 757 mmHg 38%
09:00 +29°C° 0 mm 5 mps 757 mmHg 31%
10:00 +30°C° 0 mm 5 mps 757 mmHg 27%
11:00 +33°C° 0 mm 6 mps 757 mmHg 23%
12:00 +34°C° 0 mm 6 mps 757 mmHg 19%
13:00 +35°C° 0 mm 6 mps 756 mmHg 19%
14:00 +35°C° 0 mm 6 mps 756 mmHg 20%
15:00 +35°C° 0 mm 6 mps 756 mmHg 21%
16:00 +34°C° 0 mm 5 mps 756 mmHg 25%
17:00 +32°C° 0 mm 4 mps 756 mmHg 30%
18:00 +30°C° 0 mm 3 mps 756 mmHg 35%
19:00 +28°C° 0 mm 4 mps 756 mmHg 35%
20:00 +27°C° 0 mm 4 mps 756 mmHg 35%
21:00 +25°C° 0 mm 4 mps 756 mmHg 36%
22:00 +23°C° 0 mm 5 mps 755 mmHg 36%
23:00 +23°C° 0 mm 5 mps 755 mmHg 37%

Tomorrow, 19 May, Wednesday

Time Temperature Precipitation Wind Pressure Humidity
00:00 +23°C° 0 mm 5 mps 755 mmHg 38%
01:00 +22°C° 0 mm 5 mps 755 mmHg 39%
02:00 +21°C° 0 mm 4 mps 755 mmHg 41%
03:00 +21°C° 0 mm 4 mps 755 mmHg 43%
04:00 +21°C° 0 mm 4 mps 755 mmHg 44%
05:00 +21°C° 0 mm 5 mps 755 mmHg 46%
06:00 +22°C° 0 mm 5 mps 755 mmHg 48%
07:00 +24°C° 0 mm 6 mps 755 mmHg 44%
08:00 +27°C° 0 mm 7 mps 755 mmHg 41%
09:00 +29°C° 0 mm 7 mps 755 mmHg 37%
10:00 +31°C° 0 mm 8 mps 755 mmHg 33%
11:00 +33°C° 0 mm 8 mps 755 mmHg 30%
12:00 +34°C° 0 mm 9 mps 755 mmHg 26%
13:00 +34°C° 0 mm 8 mps 754 mmHg 26%
14:00 +34°C° 0 mm 8 mps 754 mmHg 26%
15:00 +34°C° 0 mm 7 mps 754 mmHg 26%
16:00 +33°C° 0 mm 7 mps 754 mmHg 29%
17:00 +32°C° 0 mm 6 mps 754 mmHg 33%
18:00 +29°C° 0 mm 5 mps 754 mmHg 36%
19:00 +28°C° 0.1 mm 6 mps 754 mmHg 40%
20:00 +27°C° 0.1 mm 6 mps 754 mmHg 45%
21:00 +24°C° 0.1 mm 6 mps 754 mmHg 50%
22:00 +23°C° 0.7 mm 5 mps 754 mmHg 58%
23:00 +21°C° 0.7 mm 4 mps 755 mmHg 66%

Day after tomorrow, 20 May, Thursday

Time Temperature Precipitation Wind Pressure Humidity
00:00 +19°C° 0.7 mm 3 mps 755 mmHg 74%
01:00 +19°C° 0.1 mm 3 mps 755 mmHg 76%
02:00 +18°C° 0.1 mm 4 mps 755 mmHg 78%
03:00 +18°C° 0.1 mm 4 mps 755 mmHg 80%
04:00 +18°C° 0.2 mm 4 mps 755 mmHg 80%
05:00 +17°C° 0.2 mm 5 mps 755 mmHg 81%
06:00 +17°C° 0.2 mm 5 mps 755 mmHg 82%
07:00 +19°C° 0 mm 4 mps 755 mmHg 79%
08:00 +20°C° 0 mm 4 mps 756 mmHg 77%
09:00 +20°C° 0 mm 4 mps 756 mmHg 74%
10:00 +19°C° 1 mm 4 mps 756 mmHg 79%
11:00 +18°C° 1 mm 3 mps 756 mmHg 84%
12:00 +17°C° 1 mm 3 mps 756 mmHg 89%
13:00 +19°C° 0.8 mm 3 mps 756 mmHg 79%
14:00 +20°C° 0.8 mm 2 mps 756 mmHg 70%
15:00 +21°C° 0.8 mm 2 mps 756 mmHg 61%
16:00 +21°C° 0 mm 2 mps 756 mmHg 61%
17:00 +21°C° 0 mm 3 mps 756 mmHg 61%
18:00 +21°C° 0 mm 3 mps 756 mmHg 61%
19:00 +20°C° 0 mm 3 mps 756 mmHg 65%
20:00 +18°C° 0 mm 3 mps 757 mmHg 68%
21:00 +17°C° 0 mm 2 mps 757 mmHg 72%
22:00 +17°C° 0 mm 3 mps 757 mmHg 75%
23:00 +16°C° 0 mm 3 mps 757 mmHg 78%

21 May, Friday

Time Temperature Precipitation Wind Pressure Humidity
00:00 +14°C° 0 mm 3 mps 757 mmHg 81%
01:00 +14°C° 0 mm 3 mps 757 mmHg 84%
02:00 +14°C° 0 mm 2 mps 757 mmHg 87%
03:00 +14°C° 0 mm 2 mps 758 mmHg 89%
04:00 +14°C° 0 mm 2 mps 758 mmHg 87%
05:00 +15°C° 0 mm 2 mps 759 mmHg 84%
06:00 +16°C° 0 mm 2 mps 759 mmHg 82%
07:00 +17°C° 0 mm 3 mps 759 mmHg 75%
08:00 +19°C° 0 mm 3 mps 759 mmHg 67%
09:00 +20°C° 0 mm 4 mps 760 mmHg 60%
10:00 +21°C° 0 mm 4 mps 760 mmHg 56%
11:00 +22°C° 0 mm 4 mps 760 mmHg 51%
12:00 +23°C° 0 mm 4 mps 760 mmHg 47%
13:00 +25°C° 0 mm 4 mps 760 mmHg 45%
14:00 +25°C° 0 mm 4 mps 760 mmHg 44%
15:00 +26°C° 0 mm 4 mps 759 mmHg 43%
16:00 +25°C° 0 mm 4 mps 759 mmHg 46%
17:00 +25°C° 0 mm 3 mps 759 mmHg 50%
18:00 +25°C° 0 mm 3 mps 759 mmHg 53%
19:00 +24°C° 0 mm 3 mps 759 mmHg 56%
20:00 +22°C° 0 mm 3 mps 759 mmHg 58%
21:00 +21°C° 0 mm 3 mps 759 mmHg 60%
22:00 +20°C° 0 mm 3 mps 759 mmHg 60%
23:00 +20°C° 0 mm 3 mps 759 mmHg 60%

22 May, Saturday

Time Temperature Precipitation Wind Pressure Humidity
00:00 +20°C° 0 mm 4 mps 759 mmHg 60%
01:00 +19°C° 0 mm 4 mps 759 mmHg 60%
02:00 +19°C° 0 mm 4 mps 759 mmHg 60%
03:00 +19°C° 0 mm 4 mps 759 mmHg 61%
04:00 +19°C° 0 mm 4 mps 759 mmHg 61%
05:00 +20°C° 0 mm 3 mps 759 mmHg 60%
06:00 +20°C° 0 mm 3 mps 759 mmHg 60%
07:00 +22°C° 0 mm 4 mps 759 mmHg 54%
08:00 +25°C° 0 mm 4 mps 759 mmHg 47%
09:00 +27°C° 0 mm 5 mps 759 mmHg 41%
10:00 +28°C° 0 mm 6 mps 759 mmHg 38%
11:00 +29°C° 0 mm 6 mps 759 mmHg 35%
12:00 +32°C° 0 mm 7 mps 758 mmHg 32%
13:00 +32°C° 0 mm 7 mps 758 mmHg 32%
14:00 +33°C° 0 mm 6 mps 758 mmHg 31%
15:00 +34°C° 0 mm 6 mps 757 mmHg 31%
16:00 +33°C° 0 mm 5 mps 757 mmHg 35%
17:00 +31°C° 0 mm 3 mps 757 mmHg 39%
18:00 +30°C° 0 mm 2 mps 757 mmHg 43%
19:00 +29°C° 0 mm 2 mps 757 mmHg 45%
20:00 +27°C° 0 mm 3 mps 757 mmHg 48%
21:00 +25°C° 0 mm 3 mps 757 mmHg 50%
22:00 +25°C° 0 mm 3 mps 757 mmHg 49%
23:00 +24°C° 0 mm 3 mps 757 mmHg 47%

23 May, Sunday

Time Temperature Precipitation Wind Pressure Humidity
00:00 +24°C° 0 mm 3 mps 757 mmHg 46%
01:00 +22°C° 0 mm 3 mps 757 mmHg 47%
02:00 +21°C° 0 mm 2 mps 757 mmHg 47%
03:00 +21°C° 0 mm 2 mps 758 mmHg 48%
04:00 +22°C° 0 mm 1 mps 758 mmHg 49%
05:00 +22°C° 0 mm 1 mps 758 mmHg 50%
06:00 +23°C° 0 mm 1 mps 758 mmHg 52%
07:00 +24°C° 0 mm 1 mps 758 mmHg 47%
08:00 +26°C° 0 mm 1 mps 759 mmHg 43%
09:00 +27°C° 0 mm 1 mps 759 mmHg 38%
10:00 +29°C° 0 mm 1 mps 758 mmHg 36%
11:00 +31°C° 0 mm 2 mps 758 mmHg 34%
12:00 +32°C° 0 mm 2 mps 758 mmHg 31%
13:00 +34°C° 0 mm 3 mps 758 mmHg 30%
14:00 +34°C° 0 mm 3 mps 758 mmHg 28%
15:00 +35°C° 0 mm 4 mps 758 mmHg 26%
16:00 +34°C° 0 mm 4 mps 758 mmHg 32%
17:00 +33°C° 0 mm 3 mps 757 mmHg 37%
18:00 +30°C° 0 mm 3 mps 757 mmHg 43%
19:00 +29°C° 0 mm 3 mps 758 mmHg 47%
20:00 +27°C° 0 mm 4 mps 758 mmHg 51%
21:00 +25°C° 0 mm 4 mps 758 mmHg 55%
22:00 +25°C° 0 mm 4 mps 758 mmHg 57%
23:00 +23°C° 0 mm 4 mps 758 mmHg 59%
Show more

We Need Your Consent

Meteoprog and our Service Providers may store and access personal data such as cookies, device identifiers or other similar technologies on your device and process such data to personalise content and ads, as well as provide social media features and to analyse the traffic.

  • Store and/or access information on your device

    Cookies, device identifiers or other information can be stored or accessed on your device for the purposes indicated above.

  • Personalised ads and content, ad and content measurement, audience insights, and products development

    Ads and content can be personalised based on a profile. More data can be added to better personalise ads and content. Ad and content performance can be measured. Insights about the audience who saw the ads and content can be derived. Such data can be used to develop or improve user’s experience, systems and software.

By clicking ‘I Agree’ you will allow the use of indicated cookies, device identifiers, web beacons or other similar technologies. Your settings can be changed in the browser on your device.

For certain purposes, legitimate interests may be relied on, rather than consent. You can read more about this in our Privacy and Cookie Policy.